Race Results for
NMBS #8-Durango
Durango, CO
(Event Information)
This is a non-competitive event
Cross Country on 08/27/2004

Note: Ranking points are NOT upgrade points. An explanation of ranking points can be found here.


Men - Cat 1/2/3 - Senior

 Place NameCity, StateTime USAC #BibTeam
1Marc Gullickson   Colorado Springs, CO1:05:48.02 14411  1020 REDLINE
2David Labarr   Fort Collins, CO1:11:03.18 20065  701 JENSEN STE
3Andrew Hawkes   Colorado Springs, CO1:17:22.94 129305  1027 SMBA
4SCOTT BOBO   1:18:20.00  1009 
5John Swanguen   San Diego, CA1:20:32.21 34733  1030 COLLEGE CY

Men - U23 - 1-23

 Place NameCity, StateTime USAC #BibTeam
1Sam Jurekovic   Colorado Springs, CO2:07:53.89 189561  103 SPECIALIZED
2Spencer Paxson   Bellingham, WA2:11:11.80 152029  69 DISCO VELO/GIANT/HAYES
3Eric Jellum   Indian Hills, CO2:28:47.75 192996  68 FORD/GIANT
DNFRyan Gracey   Jacksonville , CADNF 198816  71 TEAM OLIVER
DNFDavid Binker   Tucson, AZDNS 166097  63 KENDA

Men - Pro

 Place NameCity, StateTime USAC #BibTeam
1GEOFF KABUSH   1:54:23.46  MAXXIS
2Adam Craig   Bend, OR1:55:02.08 94510  10 GIANT/PEARL IZUMI
3Ryan Trebon   Bend, OR1:55:25.93 136658  36 KONA/CLARKS/LESGETS
4CESAR GRAJALES   1:56:16.65  85 MAXXIS
5Brian Smith   Gunnison, CO1:56:41.92 33334  92 TREK/ROCKY MTN REGION
6Jay Henry   Avon, CO1:57:00.54 15853  12 SPECIALIZED USA
7CHRIS SHEPPARD   1:58:03.08  HARO-ADIDAS
8Travis Brown   Durango, CO1:58:32.29 5171  TREK/VOLKSWAGEN
9Eric Jones   Salt Lake City, UT1:58:33.79 18172  14 BIOGEN-IDEC
10Jeremiah Bishop   Harrisonburg, VA1:58:38.64 3771  TREK/VW
11Edmund (Ned) Overend   Durango, CO1:58:48.76 26957  100 
12Matt Shriver   Durango, CO1:59:54.87 110703  25 3D RACING/EASTON
13Ariel Lindsley   Aptos, CA2:00:06.42 134618  55 MAVERICK/KLIEN
14PETER WEDGE   2:01:20.60  13 KONA/CLARKS/LESGETS MTB
15Alan Obye   Boulder, CO2:01:23.49 117394  19 U23 NATIONAL TEAM
16BRENT MILLER   2:02:06.74  24 INTENSE/KENDA
17Barry Wicks   Corvallis, OR2:02:12.54 134223  20 KONA-CLARKS/LESGETS
18Cameron Brenneman   Santa Fe, NM2:02:18.96 4755  50 GIANT/MANITOU
19Alex Hagman   Fort Collins, CO2:02:49.82 173228  87 FORT FRAMES/SMITH
20KRIS SNEDDON   2:02:53.92  104 KONA/CLARKS/LESGETS
21Charles Pendry   Raleigh, NC2:02:57.29 106096  41 BTD RACING
22Frank Mapel   Durango, CO2:03:21.33 22429  18 SPECILIZED USA
23Matthew Unger   Idledale, CO2:03:37.05 133704  93 TEAM DEAN
24James Mortenson   Eagle, CO2:03:44.78 136357  17 SPECIALIZED
24TRENT LOWE   2:03:56.38  60 YETI
25Cody Peterson   Bend, OR2:04:02.12 97506  29 3 D RACING EASTON
26Samuel Schultz   Missoula, MT2:04:42.09 164788  95 U23 NATIONAL TEAM
27Andy Lee   Lakeway, TX2:04:59.01 104097  43 KING OF THE ROCKIES/GRAND SPORTS
28Brian Laiho   Boulder, CO2:05:16.30 114793  76 DEAN BICYCLES
29Cale Redpath   Durango, CO2:05:38.31 29358  89 505 TREK/HONEY STINGER
30Michael Lee   Mission Viejo, CA2:05:59.39 42231  48 TREK/VW/JBL
31Mike West   Boulder, CO2:06:34.40 37786  86 GIANT/OSO ENERGY/ CIBER
32Brent Bookwalter   Asheville, NC2:07:18.84 171977  79 BALANCE BAR/ DEVO
33Jason Jablonski   Wenatchee, WA2:07:52.42 98835  61 ARLBERG SPORTS/GOLDS GYM
34Nat Ross   Golden, CO2:08:23.12 152119  64 SUBARU- GARY FISHER
35Eric Ransom   Richmond, VA2:09:43.30 150928  57 TAMARACK RESORT
36Jesse Rients   Shakopee, MN2:10:25.41 147524  70 NATURE VALLEYPENN CYCLE
37Jason Sager   Ogden, UT2:11:02.47 31059  75 HOTEL SAN JOSE/CANNONDALE
38Kevin Day   Kaysville, UT2:12:16.16 108971  62 STEIN ERIKSEN SPORT
39Robert Scott   Wappingers Falls , NY2:12:40.34 32000  90 CANNONDALE
40Grant Berry   Durango, CO2:13:12.40 148636  80 TEAM DEAN
41Ross Schnell   Grand Jct, CO2:13:22.31 99965  105 TOKYO JOES
42David Timmons   Flagstaff, AZ2:13:26.76 153514  66 RPM/YETI
43Carl Swenson   Park City, UT2:13:57.78 34803  RLX RALPH LAUREN
44Douglas Ryden   Colorado Springs, CO2:14:47.01 106147  102 PRO CYCLING
45Troy Barry   Victor, ID2:14:54.68 82836  47 JHMR/MARMOT
46Tristan Schouten   Plymouth, WI2:14:55.62 145071  65 PCW CYCLING
47Micah Joseph   Denver, CO2:15:25.88 169692  106 TEAM DEAN
48Nick Gould   Hollis Maine2:17:04.58 139267  98 SANTA CRUZ/HONEY STINGER
49Brad VanOrden   Prescott, AZ2:17:16.57 140292  51 
50Bart Gillespie   Salt Lake City, UT2:17:42.05 13273  81 BIOGEN-IDEC
51Derek Wilkerson   Dallas 2:19:22.47 52173  67 SPECIALIZED HILLENBRAND
52Nathan (Nate) Ringquist   Westminster, MA2:19:23.93 140698  101 ROCK SHOX
53Dwight (Whitey) DeBroux   Boulder, CO2:19:35.56 191625  77 OSO/GIANT/CIBER
54Jesse Swift   Golden, CO2:19:58.32 100646  73 DEAN BICYCLES
55YOSHITO TSUJI   2:23:21.24  54 ROCKY MOUNTAIN
56Joseph Thompson   Durango, CO2:24:50.28 185428  72 BALANCE BAR/ DEVO
57William Holmes   Colorado Springs, CO2:25:24.23 105448  56 INTENSE CYCLES
58Bryan Fawley   Denton, TX2:25:54.08 198394  99 BONJOVI/KENDA
59Ethan Johnson   Durango, CO2:27:33.48 152494  88 BALANCE BAR/DEVO
60Robert Cagle   Marietta, GA2:35:36.01 137285  82 
DNFJohn Devine   Dixon, ILDNF 166980  96 U23 NATIONAL TEAM
DNFAdam Snyder   Westminster, MADNF 122912  74 BALANCE BAR/DEVO
DNFPatrick Bush   San Anselmo, CADNF 164281  78 CLIF BAR/TREK
DNFTAKAHIRO OGASAWARA   DNF  52 GARY FISHER JAPAN
DNFBrandon Ott   Collegeville, PADNF 151613  91 TAILWIND
DNFJoshua Powers   Phoenix, AZDNF 91975  94 SPEEDBIKES
DNFMichael Janelle   Avon, CODNF 17659  32 TOKYO JOES/GARY FISHER
DNFMichael McClure   Ketchum, IDDNF 120469  59 BALANCE BAR/ TEAM DEVO
DNFAmon Pease   Point Arena, CADNF 82723  58 INTENSE
DNFAndy Schultz   Missoula, MTDNF 172534  84 

Men - SM

 Place NameCity, StateTime USAC #BibTeam
1Nick Martin   Boulder, CO2:07:20.51 140177  249 TREK-VW
2Tim Olson   Chico, CA2:07:28.59 153947  254 TREK/VW/JB
3J Clark   Colorado Springs, CO2:08:13.76 132523  224 STEIN ERIK
4Ryan Lynch   Boulder, CO2:08:45.41 164962  234 GIANT/CIBE
5Thomas Spannring   Longmont, CO2:08:48.18 189584  209 EUCLID TIM
6Jason Donald   Brighton, CO2:09:19.51 200350  240 CIBER/OSO
7Sean Donovan   Foothill Ranch, CA2:09:32.98 186481  235 AFP/VELOSP
8Miles Venzara   Durango, CO2:10:56.33 138725  237 505 TREK H
9Richard Thurman   Chico, CA2:11:24.93 35561  201 SOULCRAFT
10Ali Goulet   Salt Lake City, UT2:11:35.93 13796  211 STEIN ERIK
11Benjamin Thompson   Bend, OR2:11:43.90 189912  207 RAGNAROK
12Lance Runyan   Mesa, AZ2:11:44.64 201139  213 STEIN ERIC
13Spencer Powlison   Boulder, CO2:12:02.68 161897  202 BLISS RACI
14Todd Johnson   Teton Village, WY2:12:16.50 18060  222 JACKSON HO
15Bear Perrin   Grants Pass, OR2:13:05.32 104126  210 PISTIS/ORB
16Blake Zumbrunnen   Bountiful, UT2:13:35.89 168946  206 REVOLUTION
17Fred (Robbie) Robinette   Austin, TX2:14:12.29 96459  218 TEAM HOTEL
18MICHAEL SCANLON   2:14:31.67  214 HUB OF ASP
19Tane Hunter   Las Cruces, NM2:15:12.36 130676  252 FORT LEWIS
20David Harris   St George, UT2:15:24.44 15187  208 505 TREK/
21Brent Winebarger   Colorado Springs, CO2:15:28.58 132038  215 505 TREK H
22Collin Becker   Colorado Springs Co2:15:28.86 179626  216 GIANT/CIBE
23GREG LEWIS   2:15:32.52  239 505 TREK/H
24Leonardo Sandoval   Clearwater, FL2:16:19.16 107620  217 HELENS
25Jay Noonan   Whitefish, MT2:17:03.31 151146  253 ROCKY MT/F
26Paul Bennett   Drake, CO2:18:01.02 122739  243 TOKYO JOES
27BRONSON DUENAS   2:18:30.65  244 
28Ryan Artale   Boulder, CO2:18:49.93 148564  236 GIANT/OSO
29Randall McVean   Middleton, WI2:18:59.53 102673  242 IONIC
30Brandon Firth   Heber, UT2:19:28.65 11665  205 STEIN SPOR
31Joel Mischke   Basalt, CO2:21:05.95 77727  219 AJAX FACTO
32Benjamin Duke   Boulder, CO2:21:42.53 170634  248 NICK MARTI
33James Upshaw   Durango, CO2:23:18.83 123287  774 3D RACING
34Forrest Smith   Waukesha, WI2:25:31.61 33131  238 
35Justin Maka   Albuquerque, NM2:27:15.39 164982  220 DEAN TITAN
36Michael Raney   Santa Fe, NM2:27:47.61 175669  250 BLUESTONE
37Darren Lightfield   Boise, ID2:27:56.20 197708  221 TAMARACK/G
38Donavan Davis   Sedona, AZ2:31:03.33 8757  223 VELO DEL N
DNFHal Clark   Lafayette, CODNF 175767  246 TOKYO JOES
DNFRyan Barthel   Durango, CODNF 2770  225 
DNFDustin Sweet   Reno, NVDNF 34787  241 TEAM EASTY
DNFCharles Knoll   DenverDNF 19476  212 NO-HAIR.CO
DNFChan Head   Salt Lake City, UTDNF 140537  204 GUTHRIE BI
DNFChris Kuhl   Dillsburg, PADNF 175354  203 BUSHEYS CY
DNFTate Graves   Denver, CODNF 114219  247 TEAM DEAN
DNFChristopher Hopwood   Fairfield, CTDNF 164804  245 GIANT/CIBE
DNFStephen Sontag   Hanover, NHDNF 174071  251 RED ROCK R

Men - EX - Junior - 1-18

 Place NameCity, StateTime USAC #BibTeam
1Garrett Gibson   San Francisco, CA2:11:40.66 144160  915 DEVO/BALAN
2TAD ELLIOT   2:14:31.25  725 
3Chris Spencer   San Francisco, CA2:14:56.21 190061  410 ROARING MO
4Ben Pifer   Kingwood, TX2:15:13.80 175635  681 UNITED YOU
5Kevin Rice   Flagstaff, AZ2:15:27.05 201159  677 Y-RIDERS
6Andrew Juiliano   Santa Clarita, CA2:18:47.74 202561  519 GALENA LOD
7Mitchell Peterson   Salt Lake City, UT2:19:25.26 192669  420 BALANCE BA
8Gian Dalle   Roslyn Wa2:20:12.30 210989  990 WENATCHEE
9Noah Singer   Little Rock, AR2:20:29.70 171313  983 DOUBLEBEES
10Ian Burnett   Durango, CO2:20:47.84 191725  533 DURANGO CY
11Sam Carlson   Bozeman, MT2:21:01.57 178447  1031 SMBA
12Colin Cares   Boulder, CO2:21:49.92 216528  637 SMBA
13Austin Carroll   Orange, CA2:26:27.40 192670  455 DEVO BALAN
14Marcus Torres   Cedar Park, TX2:26:42.46 158825  506 RITCHEY NO
15Carson Worts   Banner Elk, NC2:26:48.95 191016  650 RITCHEYNOV
16roger leclaire   Boulder, CO2:28:03.26 213870  699 
17William Brown   Oro Valley, AZ2:28:35.60 194984  632 DEVO/BALAN
18Tyler Scott   Park City, UT2:29:07.14 173528  669 YOUNG RIDE
19Eric Barlevav   Encino, CA2:29:57.07 189665  738 TITUS
20McConnell Franklin   Taos2:31:31.23 215111  969 TAOS CYCLI
21Chris Peterson   Sandy Ut2:31:46.20 202966  421 REVOLUTION
22Nickolas Wieber   Cave Creek, AZ2:33:28.82 167863  504 RITCHEY/NO
23JOSEPH SCHNEIDER   2:34:37.86  670 
24Stephen Ettinger   Bozeman, MT2:36:34.80 189074  521 WENATCHEE
25Dustin Wanstrath   Durango, CO2:36:37.12 190121  654 HASSLE FRE
26John Purvis   Parthenon, AR2:38:28.14 200977  772 NWA BUSHME
27Andrew Wait   Golden, CO2:39:31.94 182250  583 DURANGO CY
28Dustin Wynne   Park City, UT2:40:10.76 162324  649 
29Aaron Thurman-Wille   Flagstaff, AZ2:41:05.14 196296  472 NOVA
30ALEX HOWARD   2:43:10.04  1037 
31Paul Davis   Midvale, UT2:43:45.29 196139  973 CONTES/DIR
32Nick Certeza   Eagle, CO2:45:54.27 191248  731 CENTURYTEL
33Art Nelsen   Boulder, CO2:49:39.38 211465  686 
DNFTrevor Downing   Durango, CODNF 161859  523 RITCHEY NO
DNFNathan Sowle   Reno, NVDNF 198492  555 RENO WHEEL
DNFRyan Buerman   Pinckney, MIDNF 193513  981 YOUTH CYCL
DNFTyler Henderson   Denver, CODNF 194080  765 TEAM DEAN
DNFSam Jurekovic   Colorado Springs, CODNF 189561  883 SPECIALIZE
DNFTristan Uhl   Austin, TXDNF 168160  758 RITCHEY NO
DNFBraden Bingham   Longmont, CODNF 163524  460 CENTRUYTEL

Men - EX - Senior - 19-24

 Place NameCity, StateTime USAC #BibTeam
1Ty Hansen   Sandy, UT2:17:37.49 14999  492 NEW MOON M
2Jimmy Lawrence   Windham, NY2:19:36.37 193233  804 WINDHAM MT
3Robert Herber   Murrieta, CA2:21:18.52 153464  713 IE BIKES/S
4John Stevens   Norman, OK2:23:19.33 172319  1035 
5Caleb Thompson   Durango, CO2:23:53.30 173357  839 PCW CYCLIN
6John Hayes   Cleveland, TN2:24:13.80 176666  627 KRYSTAL
7Mark Lattin   Elko, NV2:31:57.09 163708  987 
8Peter Hudnut   Ft Collins, CO2:32:25.41 147099  594 COLORADO C
9Brandon Christianson   Houston, TX3:00:51.54 191883  988 SOLAR ECLI
DNFRick Wetherald   Logan, UTDNF 188971  587 FORT LEWIS
DNFNICHOLAS MARTINEZ   DNF  689 SPORTZ OUT
DNFJustin Lindine   North Ogden, UTDNF 205717  803 WINDHAM MT

Men - EX - Senior - 25-29

 Place NameCity, StateTime USAC #BibTeam
1Daniel Murray   Telluride, CO2:17:50.28 187114  608 PARAGON SK
2JAMES BATTY   2:18:18.91  1095 JANSPORT
3Toby Tsosie   El Paso, TX2:20:15.35 127320  560 
4Jake Lueckel   Lakewood, CO2:22:02.49 76599  543 NO-HAIR.CO
5Nathan Smith   Durango, CO2:26:38.47 202203  572 
6Chad Cheeney   Durango, CO2:33:39.40 104313  525 DWC
7Jeff Maier   Evergreen, CO2:36:27.54 80468  746 SANTA CRUZ
8Mario Medina   Sussex, WI2:38:30.81 181488  605 TEAM MEDIN
DNFAlan Simons   Denver, CODNF 172439  570 BIKESOURCE

Men - EX - Master - 30-34

 Place NameCity, StateTime USAC #BibTeam
1Len Zanni   Steamboat Springs, CO2:14:28.65 39400  1021 HONEYSTING
2Ophir Sefiha   Grand Junction Co2:16:53.90 40420  1003 RED ROCK R
3JUSTIN HANKINS   2:17:28.87  1094 
4Chad Kittles   Arvada, CO2:19:31.76 80263  598 YETI/DENVE
5Scott Simmons   Durango, CO2:21:06.08 32724  666 
6Chad Wassmer   Park City Ut2:22:15.17 180866  751 COLE SPORT
7Ryan McFarling   Lafayette, CO2:22:47.98 215008  690 MOUNTAIN P
8Jake Ziemba   Littleton, CO2:23:29.45 213734  564 WINDRAMS E
9Randy Flores   Santa Fe, NM2:24:43.99 11878  721 NM BIKE N
10Jerry Cherra   Duluth, MN2:28:22.75 149677  454 ALTO VELO/
11Derek Eilers   Denver, CO2:29:03.18 137502  619 ADVENTURE
12David Wilson   El Paso, TX2:29:32.23 38515  588 
13Sampson Bruesewitz   Littleton, CO2:30:04.55 149605  633 TEAM RED H
14Elliott Larson   Aspen, CO2:30:45.13 127531  700 AJAX FACTO
15Kevin Holliday   Park City, UT2:31:10.63 121402  966 JANS
16ROB HOPKINS   2:33:40.58  1066 GUTHRIE BI
17Ron Chavez   Commerce City, CO2:35:29.81 88964  730 NO-HAIR.CO
18Tom Torrance   Boulder, CO2:38:08.72 173912  660 HELLRIDERS
19Foye Troute   Hixson, TN2:42:09.36 35970  918 SHIMANO
20Tim Woodruff   Anna, TX2:47:57.08 168504  965 CHAMPIONS
21Sean Cassily   Arroyo Seco, NM2:58:29.15 174261  640 TAOS-COLAV
DNFJon Tanklage   Whittier, CADNF 185516  507 TEAM KAREE
DNFChris Hamilton   Dallas, TXDNF 189253  493 PACC

Men - EX - Master - 35-39

 Place NameCity, StateTime USAC #BibTeam
1Kirk Buckman   Santa Rosa, CA2:16:21.78 134031  760 REDWOOD EM
2Kurt Masterson   Durango, CO2:17:47.18 22865  809 
3GAIGE SIPPY   2:19:22.79  766 
4Volker Orgeldinger   Denver, CO2:20:51.63 149150  761 TEAM REDHO
5Kevin Langan   Denver, CO2:22:13.37 216476  970 REDHOOK/TU
6Lee Roufa   Telluride, CO2:24:50.30 30709  673 MOOTS
7Robert Saffell   Salt Lake City, UT2:29:31.00 190924  550 REVOLUTION
8Christopher Weber   Littleton, CO2:30:19.17 131687  586 ADVENTURE
9Timothy Barnes   Boulder, CO2:32:58.72 96071  629 TEAM DEAN
10Christopher Latshaw   Durango, CO2:40:53.19 170947  600 DURANGO WH
11Sean Peck   Durango, CO2:41:54.70 135664  1011 3D RACING
12Carlos Vulgamott   Lakewood, CO2:43:49.38 129128  657 NO-HAIR.CO
13James Nyysti   Prescott, AZ3:08:01.50 166149  546 TM EXCELLE
14Mikel Aucutt   Oxnard, CA3:08:03.09 114942  529 AMGEN CYCL
15John Larson   Mckinney, TX3:16:59.29 194312  801 PLANO ATHL
DNFMIKE O'MALLEY   DNF  683 TEAM TELLU
DNFWayne Sicz   Polson, MTDNF 80182  476 GRAVITY DR
DNFJeffrey Sellers   Aspen, CODNF 32147  571 

Men - EX - Master - 40-44

 Place NameCity, StateTime USAC #BibTeam
1Chris De Frates   Crested Butte, CO2:16:21.56 156114  727 DEAN GRASS
2Craig Hofer   Littleton, CO2:18:34.91 47071  1010 TEAM CANYO
3Steven Meyer   Breckenridge, CO2:18:41.05 83402  515 ELLSWORTH/
4Joseph Burtoni   Durango, CO2:25:07.63 5632  636 DURANGO WH
5Andrew Ferguson   Durango, CO2:25:54.49 172968  1002 TREK 505 H
6Peter Tempest   Gallup, NM2:30:50.32 102793  406 
7Mark Gouge   Littleton, CO2:32:55.64 115008  1064 PIKES PEAK
8Stephen Thaxton   Sissonville, WV2:36:46.36 35278  405 TEAM WV BO
9Jesse Ferrer   Star, ID2:58:15.79 165832  446 
10Chris Rickey   Yukon, OK2:59:02.64 179082  924 
DNFTodd Mills   Mableton, GADNF 84369  1058 REALITY BI
DNFChristopher Branson   Glendale, AZDNF 155531  456 ADVENTURE

Men - EX - Master - 45-49

 Place NameCity, StateTime USAC #BibTeam
1Todd Henneman   Park City, UT2:15:38.72 15823  593 JANS
2Robert Anderson   Mill Valley, CA2:20:52.81 1688  530 NOVADIGM/F
3John Gilbert   Durango, CO2:26:57.08 13229  791 HASSLE FRE
4Russell Asleson   Colorado Springs, CO2:31:28.13 2017  461 MAD DOG ME
5Pete Masiel   Silver City, NM3:01:47.46 174198  429 IE BIKES/S
DNFKeith Sanders   Winter Park, CODNF 31223  412 GRAND SPOR
DNFRobert Koerber   Asheville, NCDNF 97472  436 CANE CREEK

Men - EX - Master - 50-54

 Place NameCity, StateTime USAC #BibTeam
1Billy Newmyer   Durango, CO1:08:13.89 26011  684 MAVERICK A
2Ralph Winebarger   Aztec, NM1:09:36.22 138980  589 505-TREK
3Bryce Miller   Tucson, AZ1:12:04.77 109817  1033 SIERRA HEL
4Paul Zarubin   Truckee, CA1:12:37.09 196952  402 MT LINCOLN
5Roger Gillespie   Provo, UT1:16:22.08 13281  625 BIOGEN-IDE
6Dan Wanstrath   Durango, CO1:17:19.39 211020  656 

Men - EX - Master - 55-99

 Place NameCity, StateTime USAC #BibTeam
1Ric Dudley   Fort Collins, CO1:14:13.13 10094  756 3D RACING/
2Robert Blatner   Brentwood, CA1:19:10.95 128181  498 BIKES4LIFE
3Richard Sederberg   Batesville, AR1:25:43.30 171312  553 PARKSIDE/S
4Donald Mapel   Durango, CO1:32:36.48 22428  688 DURANGO WH
5Jurgen Leiser   Colorado Spgs, CO1:34:26.40 20844  431 
6Tim Hagman   Woody Creek, CO1:44:42.14 211830  1040 
7Jacques Houot   Carbondale, CO2:04:08.55 16835  979 ASPEN CYCL

Men - SP - Junior - 1-18

 Place NameCity, StateTime USAC #BibTeam
1Benjamin Kraushaar   Durango, CO1:13:24.97 198737  703 DURANGO WH
2Dutch Wiehe   Park City, UT1:14:21.10 161913  749 YOUNG RIDE
3Dylan Stucki   Durango, CO1:15:55.89 192016  663 TOTALLY WI
4Tres Wilson   Durango, CO1:17:29.13 151528  993 YOUNG RIDE
5Matthew Beaton   Colorado Springs, CO1:19:03.08 216119  1073 Y RIDERS
6Austin McKnight   Highlands Ranch, CO1:19:36.39 200014  1121 RMCEF
7Colin Harris   Niwot, CO1:19:49.55 203381  1075 Y-RIDERS
8BRENNAN STEGE   1:32:40.08  574 
9ROGAN BROWN   1:40:55.08  735 
DNFGRADY JAMES   DNF  1015 

Men - SP - Senior - 19-24

 Place NameCity, StateTime USAC #BibTeam
1MILES MIELKE   1:10:19.10  1096 
2Connor Shreve   Lafayette, CO1:23:58.50 186234  667 661/MAXXIS
3Skyler Rail   Independence, KS1:26:32.51 140767  512 
4DREW EDSALL   1:26:41.53  980 
5Charlie Neuenschwander   Piedmont, OK1:28:10.90 204061  920 
6James Voorhies   Fort Collins, CO1:36:41.37 199019  868 
DNFSAM FERANDO   DNF  874 
DNFChris Paulson   Albuquerque, NMDNF 153649  1036 UNM

Men - SP - Senior - 25-29

 Place NameCity, StateTime USAC #BibTeam
1Jason Meinke   Choctaw, OK1:16:29.56 203082  925 
2Robert Aguero   Little Rock, AR1:29:14.90 187781  1023 WHEELS IN

Men - SP - Master - 30-34

 Place NameCity, StateTime USAC #BibTeam
1QUENTIN MORISETTE   1:10:04.02  427 COPPERCHAS
2Kent Carlsen   Providence , UT1:11:11.30 169531  1065 LOGAN RACE
3GAVIN ATKINS   1:12:15.82  1068 MOUNTAIN M
4ROB LEE   1:14:00.89  1067 SEA LEVEL
5GABRIEL CARBAJAL   1:14:27.87  997 SOLSCADE R
6Bradley Newby   Saint George, UT1:15:06.52 195141  481 RED RODE B
7TERRY GORSUCH   1:16:41.77  718 KOKOPELLI
8Joshua Cooper   Santee, CA1:22:26.92 199505  859 
9JUSTIN ELLIOTT   1:24:38.26  896 
10Linde Smith   Springville, UT1:25:34.34 44274  475 BIOGEN
11JUSTIN REPATH   1:32:37.80  1028 
12CHRIS RICHARDSON   1:32:50.04  678 BIKE DOCTO

Men - SP - Master - 35-39

 Place NameCity, StateTime USAC #BibTeam
1ROBERT GOODING   1:15:56.46  996 
2Mark Fasczewski   Greensboro, NC1:26:06.14 112145  1087 SUCK CREEK
3ROBERT MYERS   1:27:27.69  1024 
4Rocky Rockwell   Durango, CO1:28:59.15 152314  1108 NRC/PEDAL
5Noel Garcia   Phoenix, AZ1:31:11.70 177810  623 GEARWERKS/
6Patrick Clements   Corpus Christi, TX1:39:57.64 194475  453 BULLDOG
7Chuck Bolden   Denver, CO1:40:11.59 194188  1072 SMBA/SMITH
8Jay McGinnis   Plano, TX1:43:54.85 187731  852 WHEELS N M
9Keith Newsome   Bakersfield, CA1:47:40.30 79109  423 PLANET X
DNFBRAD GOOD   DNF  440 
DNFTODD BRADY   DNF  982 BIKESOURCE

Men - SP - Master - 40-49

 Place NameCity, StateTime USAC #BibTeam
1WILLIAM SCALF   1:14:37.40  1059 DURANGO MO
2PAUL MINARDI   1:17:32.41  1025 
3Robert Letson   Broomfield, CO1:18:23.48 178769  432 SEVEN
4MANNY ORTIZ   1:18:36.64  514 SWISS AMER
5Mark Wille   Flagstaff, AZ1:19:21.37 196295  468 ABSOLUT/SU
6RODNEY WILSON   1:21:02.15  1114 INDEPENDEN
7MICHAEL MARTIN   1:22:45.47  776 
8Alex McLean   Durango, CO1:23:02.10 161366  694 
9Joe Fabris   Los Gatos, CA1:27:47.99 189959  447 LE VILLAGE
10Scott Mydock   Glendale, AZ1:29:02.24 106945  424 TEAM EXCEL
11T Casper   Durango, CO1:31:52.01 172907  732 STORM RACI
12Rick Lane   Fullerton, CA1:37:17.86 199508  1069 
DNFSTEVE WAYMAN   DNF  1006 

Men - SP - Master - 50-99

 Place NameCity, StateTime USAC #BibTeam
1BRUCE MCKAY   1:28:10.60  603 
2Robert Williams   Scottsdale, AZ1:33:17.40 125738  465 LANDIS CYC
3Richard Bagienski   Durango, CO1:37:48.33 176501  501 SNOWATER
4Jim Simons   Bozeman, MT1:51:22.16 174588  554 STRONG RAC
DNFMEINRAD LECKIE   DNF  434 FIRST SLAT
DNFEric Storm   Apple Valley, CADNF 82406  473 

Men - BG - Junior - 1-10

 Place NameCity, StateTime USAC #BibTeam
1GINO PASTORE   0:25:15.05  1029 
2Ethan Williams   Cottonwood, AZ0:51:09.09 215749  401 MISSING LI

Men - BG - Junior - 11-12

 Place NameCity, StateTime USAC #BibTeam
1Carsen Ware   St George, UT0:21:24.20 195310  471 BICYCLES U
2Timmy Williams   Cottonwood, AZ0:24:22.57 204154  404 MISSING LI

Men - BG - Junior - 13-14

 Place NameCity, StateTime USAC #BibTeam
1Adam Parke   Steamboat Springs, CO0:27:03.76 213492  610 HONEYSTING
2Brandon Lee   Mission Viejo, CA0:27:16.51 169394  542 TREK/VW/JB
3Alex Scott   Park City, UT0:32:16.31 175666  668 YOUNG RIDE
4CHASE ORRICK   0:33:22.62  1019 
5Colin Wait   Durango, CO0:36:12.19 211213  584 DURANGO DI
6Jason Throop   Escondido, CA0:41:49.29 184439  578 RITCHEY NO

Men - BG - Junior - 15-16

 Place NameCity, StateTime USAC #BibTeam
1CHAD WANSTRATH   0:26:14.21  655 

Men - BG - Junior - 17-18

 Place NameCity, StateTime USAC #BibTeam
1DAMIEN FETERSEN   1:33:35.30  919 
2KYLE HORN   1:35:10.39  785 

Men - BG - Senior - 19-29

 Place NameCity, StateTime USAC #BibTeam
1JASON OTT   1:27:41.64  480 
2BRADFORD PETE-HILL   1:34:11.61  419 
3Robert Schaeffer   Beverly Hills, CA1:38:33.86 131038  411 WHEEL WORL
4CHRIS HEPBURN   1:45:25.98  491 
5Christopher Gibson   Washington, DC1:57:29.95 216712  624 

Men - BG - Master - 35-39

 Place NameCity, StateTime USAC #BibTeam
1Xavier Rangel   Phoenix, AZ1:37:48.68 157867  413 
2SCOTT BACHMAN   1:44:44.20  850 WHEELS IN

Men - BG - Master - 40-49

 Place NameCity, StateTime USAC #BibTeam
1PHILLIP HEIDEN   0:32:20.98  999 
2Michael Boetker   Highlands Ranch, CO0:37:28.76 149551  630 

Women - U23 - 1-23

 Place NameCity, StateTime USAC #BibTeam
1HILLARY WRIGHT   2:32:45.94  71 BALANCE BAR/DEVO

Women - Pro - Senior

 Place NameCity, StateTime USAC #BibTeam
1Shonny Vanlandingham   Captain Cook, HI1:58:13.57 89955  17 LUNA WOMENS MTB TEAM
2Alison Dunlap   Colorado Springs, CO1:59:51.67 10194  39 LUNA WOMENS MTB TEAM
3Dara Marks-Marino   Flagstaff, AZ2:00:01.85 144461  FORD CYCLING
4Gretchen Reeves   Avon, CO2:05:27.18 29423  18 ROCKY MTN / BUSINESS OBJECTS
5KATERINA HANUSOVA   2:05:36.49  LUNA WOMEN MTB
6Susan Haywood   Harrisonburg, VA2:05:44.50 117585  TREK-VOLKSWAGEN
7Kelli Emmett   Plymouth Mi2:06:31.48 156146  13 SPECIALIZED HILLENBRAND
8JENNIFER SMITH   2:07:04.64  15 WV BONJOVI TM
9Katherine Zambrana   Steamboat Springs, CO2:08:18.08 145788  76 DEAN
10Willow Koerber   Durango, CO2:08:36.25 77103  RLX RALPH LAUREN
11CHRISSY REDDEN   2:08:59.48  SUBARU-GARY FISHER
12Lisa Matlock   Arvada, CO2:09:30.63 122014  25 FORD CYCLING
13Abigail Hippely   Santa Cruz, CA2:12:42.11 184801  35 KLEIN MAVERICK
14LEA DAVISON   2:13:28.00  37 TEAM DEVO
15Georgia Gould   Fort Collins, CO2:13:36.88 183192  32 JENSENSTERN/SMITH
16Kerry Barnholt   Mountain View, CA2:13:59.11 150226  41 SUBARU-GARY FISHER
17Tonya Laffey   Altadena, CA2:15:05.84 121249  26 MTBCHICK.COM/CANNONDALE
18Jennifer Gersbach   Durango, CO2:15:19.44 191239  47 TOKYO JOES
19Sarah Tescher   Durango, CO2:15:47.99 182273  75 3D & EASTON
20Zephanie Blasi   Vail, AZ2:16:12.25 156031  59 RENO WHEELMEN/KENDA
21Nina Baum   Albuquerque, NM2:17:07.48 180986  24 TITUS
22Sara Bresnick   Arlington, MA2:17:33.94 166426  23 FORD CYCLING
23Lorien Lightfield   Boise, ID2:20:35.94 98936  52 TAMARACK/GOLDYS
24Megan Carrington   Denver, CO2:20:59.63 154412  58 RED HOOK/TURIN
25Susan Fiore   Arroyo Seco, NM2:21:37.80 163471  46 COLAVITA BOLLA-TAOS
26Alicia Hamilton   Colorado Springs, CO2:21:50.81 175005  55 GIANT/ DARK HORSE
27NIKI GUDEX   2:22:06.13  68 INTENSE CYCLES/OAKLEY
28Julie Emmerman   Boulder, CO2:22:28.48 121552  45 EPIC ROOTS/ PEARL IZUMI
29Robin McGee   Jackson, WY2:22:42.27 172970  30 JACKSON HOLE/MARMOT
30Heather Svahn   Truckee, CA2:24:15.51 112034  66 THE BACKCOUNTRY
31Joan Orgeldinger   Denver, CO2:24:29.55 149151  65 REDHOOK/TURIN
32Cindi Hansen   Sandy, UT2:24:56.93 191679  36 MTBCHICK.COM/CANNONDALE
33Jennifer Wilson   El Paso, TX2:25:21.76 113826  44 
34Judith Freeman   Littleton Co2:27:27.23 182719  43 CANNONDALE
35Shannon Gibson   Durango, CO2:28:29.64 156279  57 CRAZY CAT CYCLERY
36D Morisette   Brian Head, UT2:29:40.97 161293  31 ELLSWORTH
37Kristi Lewis   Durango, CO2:31:06.49 21089  53 SUN & SKI SPORTS/HARO
38Theresa Richardson   Davidsonville, MD2:31:16.09 170227  51 CANNONDALE MTN BIKE TEAM
39Ashlie Angel   Durango, CO2:32:12.24 189762  60 HASSLE FREE SPORTS/TREK
40Susan Grandjean   Portland, OR2:34:08.61 116807  56 YIPEE RACING
41NOEL WEDDLE   2:34:50.69  49 VELO BELLA/VELOJUNCTION.COM
42Sarah (Sally) Warner   Stow, MA2:35:18.63 60346  64 BIOGEN-IDEC
43Hana Fiserova   Ft Collins, CO2:37:08.90 202507  69 MTBCHICK.COM/CANNONDALE
44Laura Anderson   Crested Butte, CO2:38:26.81 165743  34 AMGEN
45Rebecca Gross   Golden, CO2:42:08.39 176014  33 MATHIS BROTHERS/SHARPER IMAGE
46Shari Hausbeck   Colorado Springs, CO2:42:43.65 100434  54 ROCK SHOX/PRO CYCLING
47Lisa Peck   Santa Cruz, CA2:43:06.49 27559  63 BIOGEN-IDEC
48Rebecca Cleveland   Green Bay, WI2:44:56.59 100571  40 THE BIKE HUB
49Susan Juedes   Madison, WI2:54:33.01 169773  73 TEAM BIKE HUB
50STEFFI PENCO   2:55:02.45  74 COLNAGO/NORTHWAVE
51Suzanne Aguero   Little Rock, AR3:00:45.00 187776  67 WHEELS IN MOTION
DNFKatherine Sherwin   Heber City, UTDNF 173633  29 CANNONDALE
DNFKRISTIN JOHNSON   DNF  70 FORD BASIS
DNFKimberly Flynn   Greensboro, NCDNF 122752  72 DEFEET
DNFHeidi Faller   Bend, ORDNF 178986  61 TM DEAN
DNFLeslie Gilmore   Flagstaff, AZDNS 165486  62 SOULCRAFT
DNFBecca Blay   Boulder, CODNF 174258  42 TEAM DEAN
DNFAlexandra Robinette   Austin, TXDNF 149261  50 TEAM HOTEL SAN JOSE
DNFSheryl Loan   Eagle River, AKDNF 21402  38 RTR

Women - EX - Junior - 1-18

 Place NameCity, StateTime USAC #BibTeam
1Kayla Martin   Boulder, CO1:21:05.81 203017  892 Y RIDERS
2Chloe Forsman   Tucson, AZ1:21:10.53 214920  1062 Y-RIDERS
3Sabina Kraushaar   Durango, CO1:24:05.31 198738  702 DURANGO WH
4Chantel Shoemaker   Durango, CO1:25:44.94 170692  508 RITCHEY NO
5Danae York   Boulder, CO1:26:56.84 178290  591 VELOBUM.CO
6Deidre York   Boulder, CO1:31:31.93 178289  592 VELOBUM.CO
7Rachel Throop   Costa Mesa, CA1:36:36.77 174132  580 RITCHEY NO
8Sara Connolly   Bend, OR1:44:15.64 211448  616 HUTCHS BIC

Women - EX - Senior - 19-24

 Place NameCity, StateTime USAC #BibTeam
1THERESA MATTINGLY   1:16:35.24  891 
2Kathleen Weber   Austin, TX1:23:08.81 144579  748 TEAM ORTHO
3Blair Rajamaki   Park City, UT1:30:18.57 191737  511 X MEN
4Onawa Pelham   Durango, CO1:37:14.51 207459  971 WINDHAM MT

Women - EX - Senior - 25-29

 Place NameCity, StateTime USAC #BibTeam
1Kristina Andrus   Evergreen, CO1:18:54.22 152326  745 SANTA CRUZ
2CORRIE ELDRED   1:19:52.14  909 
3Polly Simpich   Winter Park, CO1:22:35.67 213489  977 TOTALLY WI
4Mary Carlson   Spokane, WA1:28:54.66 181834  638 MTBCHICK/C
5Jessica Nelson   Longmont, CO1:56:28.10 199823  685 MTBCHICK.C

Women - EX - Master - 30-34

 Place NameCity, StateTime USAC #BibTeam
1Christie Johnson   Park City1:25:52.16 201583  489 TEAM SUGAR
2Amy Bowen   Santa Cruz, CA1:30:39.33 194774  497 AMGEN
3Kim Heiser   Auburn, CA1:32:00.69 206432  974 VELO BELLA
4Melenie Long   Boulder, CO1:35:46.05 215408  903 ADVENTURE
5Becky Rockwell   Durango, CO1:37:03.41 152313  1005 

Women - EX - Master - 35-39

 Place NameCity, StateTime USAC #BibTeam
1Trudi Franzel   Richmond Hill, GA1:17:00.48 201599  442 TITUS CYCL
2Stacey Scanlan   Boise, ID1:18:11.75 199731  551 TAMARACK/G
3Nicole Hanson   Arvada, CO1:21:13.81 211486  1082 VELO BELLA
4Beverley Harper   Woodside, CA1:22:18.52 15132  968 LGBRC
5Jody Bradbury   Bend, OR1:23:30.80 207207  457 TAI CYCLIN
6Pamela Hanlon   Park City, UT1:29:00.39 173451  750 JANS
7Lisa Barnard   Phoenix, AZ1:39:20.39 195511  739 TITUS CYCL

Women - EX - Master - 40-44

 Place NameCity, StateTime USAC #BibTeam
1Linda Holzinger   Castle Rock, CO1:27:19.20 213491  895 
2Kathryn Judson   Arvada, CO1:30:03.87 47161  764 GOLDEN BEA
3Cindy McLean   Durango, CO1:34:21.92 157547  693 

Women - EX - Master - 50-54

 Place NameCity, StateTime USAC #BibTeam
1Deborah Wille   Flagstaff, AZ1:49:43.93 196287  482 ABSOLUTE B

Women - EX - Master - 55-99

 Place NameCity, StateTime USAC #BibTeam
1Martha Iverson   Durango, CO1:31:02.30 80010  438 
DNFCAROL NEWSOME   DNF  544 KING OF TH

Women - SP - Junior - 1-18

 Place NameCity, StateTime USAC #BibTeam
1Essence Barton   Thousand Oak, CA1:30:25.72 179924  793 GIANT/DIRT
2Kathryn McLean   Durango, CO1:33:16.62 200488  695 
3Amber Throop   Escondido, CA1:33:17.46 181129  579 RITCHEY NO
4MAGGIE CASEY   1:39:24.55  777 DURANGO CY
5Jill Behlen   Boulder, CO1:49:20.09 210228  736 Y RIDERS

Women - SP - Senior - 19-29

 Place NameCity, StateTime USAC #BibTeam
1Deanna Weber   Fort Worth, TX1:33:17.11 202645  747 PEDAL MASH
2Liz Zumbrunnen   Salt Lake City, UT1:33:19.18 199878  503 REVOLUTION
3ANGELA HOUGHTON   1:47:51.45  709 

Women - SP - Master - 30-39

 Place NameCity, StateTime USAC #BibTeam
1LaDawn Stevenson   Breckenridge, CO1:26:38.61 199917  1122 TOKYO JOES
2COLLEEN CRAIG   1:38:30.74  1109 
3Sophia Lane   Fullerton, CA1:49:57.93 183998  1070 THE ANTMAN
4KRISTIN ALDRICH   1:52:00.10  744 

Women - SP - Master - 40-99

 Place NameCity, StateTime USAC #BibTeam
1MARY TESITOR   1:32:07.71  577 
2KIM PETTIJOHN   2:29:29.29  612 

Women - BG - Junior - 1-10

 Place NameCity, StateTime USAC #BibTeam
1Rachel Mydock   Glendale, AZ0:39:46.96 206453  425 RITCHEYNOV
2Celeste Garcia   Phoenix, AZ0:43:37.39 207771  621 GEARWERKS

Women - BG - Junior - 11-12

 Place NameCity, StateTime USAC #BibTeam
1ALICIA ROSE PASTORE   0:25:14.57  1032 
2Kara Uhl   Smithville, TX0:27:55.10 185730  759 RITCHEY NO
3Aubrey Garcia   Phoenix, AZ0:35:07.34 187105  622 GEARWERKS

Women - BG - Junior - 13-14

 Place NameCity, StateTime USAC #BibTeam
1Jessica Maier   Glendale, AZ0:37:16.48 196736  517 RITCHEY NO

Women - BG - Senior - 19-29

 Place NameCity, StateTime USAC #BibTeam
1GABRIELA WILLIAMS   0:36:17.14  1113 
DNFTraci Baker   Canyon Country, CADNF 213536  1112 

Women - BG - Master - 30-99

 Place NameCity, StateTime USAC #BibTeam
1NANCY DONNELAAN   0:34:10.14  449 ADVENTURE
2Lori Fabris   Los Gatos, CA0:38:04.62 216209  724 
3Lana Suffia   Bakersfield, CA0:39:51.05 197378  967 
DNFCindy Mydock   Glendale, AZDNF 106946  426 TEAM EXCEL

Report missing or incorrect license numbers

Volkswagen
SpyShimanoUSACDFBonk BreakerSierra Nevada
UCI USA Cycling is the official governing body for all disciplines of competitive cycling in the United States. The 501c3, membership-based organization aims both to achieve sustained success in international cycling competition and to grow competitive cycling in America while delivering an exceptional customer experience.
View Children's Online Privacy Protection Policy
US Olympic Committee